Regional Weather Roundup
Issued by NWS Wakefield, VA

Home | Current Version | Previous Version | Text Only | Print | Product List | Glossary Off
Versions: 1 2 3 4 5 6 7 8 9 10 11 12 13 14 15 16 17 18 19 20 21 22 23 24 25 26 27 28 29 30 31 32 33 34 35 36 37 38 39 40 41 42 43 44 45 46 47 48 49 50

186
ASUS41 KAKQ 081515
RWRAKQ

REGIONAL WEATHER ROUNDUP
NATIONAL WEATHER SERVICE WAKEFIELD VA
1000 AM EST THU DEC 08 2016

Note: "fair" indicates few or no clouds below 12,000 feet with no
significant weather and/or obstructions to visibility. * = Denotes
station may not report precipitation (e.g., rain,snow,etc.),
thunder or fog.

VAZ042-051-052>054-056-081600-
NORTHERN VIRGINIA

CITY           SKY/WX    TMP DP  RH WIND       PRES   REMARKS
WASH NATIONAL  CLOUDY    46  30  53 VRB5      30.06S
DULLES         PTSUNNY   42  27  55 CALM      30.06R
FORT BELVOIR   CLOUDY    43  36  76 CALM      30.06S
QUANTICO       CLOUDY    44  36  73 CALM      30.08R
FREDERICKSBRG* CLOUDY    43  37  78 CALM      30.06S
STAFFORD*      CLOUDY    42  38  86 CALM      30.11R
WARRENTON      CLOUDY    40  33  75 CALM      30.06R
CULPEPER*      CLOUDY    40  36  87 CALM      30.08R
MANASSAS*        N/A    N/A N/A N/A W6        30.08R
LEESBURG*      CLOUDY    43  32  65 MISG      30.06S
WINCHESTER     MOSUNNY   39  19  45 W12       30.05S
FRONT ROYAL*   FAIR      37  32  81 S3        30.05S
LURAY*         FAIR      36  36 100 S5        30.06S
$$

VAZ048-049-060>072-079>083-081600-
CENTRAL AND SOUTH CENTRAL VIRGINIA

CITY           SKY/WX    TMP DP  RH WIND       PRES   REMARKS
RICHMOND       CLOUDY    43  40  89 N5        30.06S
CHESTERFIELD*  CLOUDY    45  30  57 NW8       30.08R
PETERSBURG*    CLOUDY    45  42  91 W3        30.07S
HANOVER        CLOUDY    42  37  82 NW5       30.08R
TAPPAHANNOCK*  CLOUDY    41  41 100 CALM      30.06S FOG
QUINTON*       CLOUDY    41  40  97 CALM      30.05S
CHARLOTTSVILLE CLOUDY    41  35  79 SW5       30.07R
GORDONSVILLE*  PTSUNNY   42  37  83 CALM      30.07R
ORANGE*          N/A     43  37  81 CALM      30.08R
LOUISA*        PTSUNNY   45  37  76 NW3       30.05S
BUMPASS*       CLOUDY    41  39  91 CALM      30.06R
FARMVILLE*     CLOUDY    47  37  69 CALM      30.07R
CREWE*         PTSUNNY   45  42  90 NW3       30.08R
FORT PICKETT*  CLOUDY    47  41  82 NW5       30.07R
CHASE CITY*    PTSUNNY   44  31  61 NW7       30.09R
CLARKSVILLE*   FAIR      45  32  61 NW6       30.09R
SOUTH HILL*    CLOUDY    46  41  84 W5        30.13R
LAWRENCEVILLE* CLOUDY    46  42  86 W3        30.07R
EMPORIA*       CLOUDY    46  45  93 E5        30.08R
$$

VAZ088>098-081600-
SOUTHEAST VIRGINIA

CITY           SKY/WX    TMP DP  RH WIND       PRES   REMARKS
NORFOLK        CLOUDY    49  44  83 SW8       30.05R
VIRGINIA BEACH CLOUDY    49  43  80 SW6       30.05R
NORFOLK NAVAL  CLOUDY    50  44  80 S7        30.05R
WEST POINT*    CLOUDY    42  41  97 N3        30.08R
SALUDA*        CLOUDY    44  44  99 NW5       30.06R
NEWPORT NEWS   LGT RAIN  48  45  89 SW8       30.04R FOG
LANGLEY AFB    LGT RAIN  48  45  87 S7        30.03S
FORT EUSTIS    CLOUDY    48  45  87 W6        30.03R FOG
WILLIAMSBURG*  CLOUDY    48  45  87 W8        30.06R
HR EXEC AP*    CLOUDY    46  45  93 SW3       30.04R
FRANKLIN*      CLOUDY    47  44  88 SW6       30.06R
US460-WAKEFLD  CLOUDY    46  45  96 W5        30.06R FOG
$$

VAZ020-022-025-037-045-081600-
WEST CENTRAL AND SOUTHWEST VIRGINIA

CITY           SKY/WX    TMP DP  RH WIND       PRES   REMARKS
STAUNTON*      CLOUDY    35  33  94 CALM      30.10R
WAYNESBORO*    FAIR      39  20  47 SW7       30.08R
HOT SPRINGS VA NOT AVBL
LYNCHBURG      CLOUDY    44  28  53 VRB3      30.10R
DANVILLE       CLOUDY    46  31  55 NW7       30.12R
SOUTH BOSTON*  FAIR      47  25  41 NW8       30.10R
MARTINSVILLE   CLOUDY    44  15  30 N9G18     30.14R
ROANOKE        CLOUDY    41  17  38 NW13      30.15R
BLACKSBURG     CLOUDY    35  20  54 W8G17     30.15R
DUBLIN*        CLOUDY    36  19  49 W12G17    30.14R
MARION*        CLOUDY    33  18  52 W13G23    30.16R WCI  24
HILLSVILLE*    CLOUDY    33  16  49 NW7       30.09R
RICHLANDS*     CLOUDY    31  20  64 W7        30.16S
WISE*          PTSUNNY   32  18  55 W7        30.18R
ABINGDON*      PTSUNNY   37  17  45 NW9       30.18S
$$

MDZ021>025-VAZ099-100-081600-
SOUTHERN MARYLAND AND THE DELMARVA PENINSULA

CITY           SKY/WX    TMP DP  RH WIND       PRES   REMARKS
PATUXENT RIVER LGT RAIN  43  41  93 CALM      30.07R FOG
BAY BRIDGE APT CLOUDY    45  34  65 SW8       30.06F
LEONARDTOWN    CLOUDY    39  37  93 CALM      30.08R
DOVER          CLOUDY    40  37  86 W7        30.04F
GEORGETOWN     CLOUDY    40  37  89 NW3       30.07R
EASTON         CLOUDY    45  34  65 W5        30.10S
CAMBRIDGE      CLOUDY    37  37 100 W3        30.07R
SALISBURY      CLOUDY    40  38  93 CALM      30.06S
OCEAN CITY     CLOUDY    41  38  89 NW6       30.06R
WALLOPS ISLAND CLOUDY    42  41  96 NW5       30.07R
ACCOMACK*      CLOUDY    43  42  97 CALM      30.05R FOG
$$

NCZ012>017-030>032-081600-
NORTH CENTRAL AND EASTERN NORTH CAROLINA

CITY           SKY/WX    TMP DP  RH WIND       PRES   REMARKS
ROANOKE RAPIDS CLOUDY    48  46  93 W6        30.07R
RALEIGH        CLOUDY    49  34  56 N3        30.10R
ELIZABETH CITY CLOUDY    50  46  86 SE5       30.05R
AHOSKIE*       CLOUDY    49  47  92 CALM      30.07R
EDENTON*       CLOUDY    55  49  81 CALM      30.06S
CURRITUCK*     CLOUDY    49  49  97 CALM      30.06R
KILL DEVIL HLS CLOUDY    52  47  83 CALM      30.04S
MANTEO         CLOUDY    52  46  80 CALM      30.06R
CAPE HATTERAS  NOT AVBL
TARBORO*       NOT AVBL
GOLDSBORO      CLOUDY    54  54 100 W9        30.06R
WASHINGTON     CLOUDY    53  49  86 SW5       30.07R
GREENVILLE     CLOUDY    52  50  93 SW7       30.08R
NEW BERN       MOSUNNY   55  48  77 W9        30.08R
WILMINGTON     CLOUDY    52  51  97 W9        30.10R
$$

VAZ048-081600-
ELSEWHERE

CITY           SKY/WX    TMP DP  RH WIND       PRES   REMARKS
HARRISBURG PA  CLOUDY    40  27  59 CALM      30.01S
BALTIMORE      PTSUNNY   44  27  51 W7        30.04S
ANNAPOLIS      CLOUDY    46  32  58 W6        30.06S
ANDREWS AFB    CLOUDY    44  35  69 S1        30.04S
PHILADELPHIA   CLOUDY    41  29  62 SW8       30.04R
HENDERSON NC   CLOUDY    43  30  59 NW8       30.09R
GREENSBORO     CLOUDY    47  30  51 VRB6      30.11R
ROCKY MOUNT    CLOUDY    51  48  89 NW10      30.09R
$$

VAZ100-081600-
MARINE

STATION/POSITION TIME  TEMP    WIND        PRES    WAVE   SWELL
                       AIR SEA DIR/SP/G            HT/PER HT/PER
                 (UTC) (F)     (DEG/KT/KT) (MB)    (FT/S) (FT/S)
BRANDYWINE LGT   1448   43     310/  8/ 10   N/A
CAPE MAY NJ      1448   45 47  320/  8/ 10 1017.3R
LEWES DE         1448          280/  5/  7 1017.9R
OCEAN-CITY-INLET 1448          350/  5/  6 1018.3R
WACHAPREAGUE VA  1448   43 48  320/  1/  3 1017.7R
THOMAS POINT MD  1500   44 48  230/  6/  7   N/A
GOOSES REEF MD   1500   44 49   30/  6/  8 1019.0    0
COVE POINT MD    1448   42      60/  3/  6 1018.8R
SOLOMONS ISLAND  1448           70/  5/  6   N/A
BISHOPS HEAD MD  1448   43 47  330/  3/  4 1018.6R
PINEY POINT MD   1448           50/  5/  6   N/A
POTOMAC MD       1500   45 50  350/  2/  2 1017.3    0
CAMBRIDGE MD     1448   44 47  330/  9/ 11 1017.7R
LEWISETTA VA     1448   44 49   70/  3/  5 1017.8R
RAPPAHANNOCK LGT 1448             CALM     1018.1R
STINGRAY PT      1500   47     360/  4/  8 1018.1    0
YORK RVR RNG VA  1448   48     200/  4/  6 1017.2R
YORKTOWN VA      1448   48 51  210/  5/  7 1017.0R
JAMESTOWN VA     1500   46 51  290/ 12/ 12   N/A     0
DOMINION TERM VA 1448   48     220/ 10/ 12 1017.4R
KIPTOPEKE VA     1448          210/  6/  8   N/A
CHES BAY BRIDGE  1448   49 52  210/  7/  9 1017.3R
CAPE HENRY VA    1448   48     200/  5/  7   N/A
WILLOUBY STN VA  1448   49     210/ 10/ 12 1018.2R
S CRANEY ISL VA  1448   49     220/  6/ 10 1017.2R
CAPE HENRY BUOY  1442      54                N/A     3/ 9   2/11
CAPE CHARLES BUO 1456      54                N/A     3/ 8   2/11
OFFSHORE WE BUOY 1451      56                N/A     4/10   2/11
64NM E OF VA BCH 1450   53 59  230/  4/  8 1017.3F   4/10   3/10
DUCK PIER NC     1448   52 54  210/  5/  5 1017.2R
44100 DUCK FRF   1435      55                N/A     4/ 9   2/11
OREGON INLET NC  1442   53 55  220/  2/  3 1017.3F
HATTERAS NC      1448          150/  3/  5 1017.1S
DIAMOND SHLS NC  1450   60 78  280/  6/  8 1017.7R   4/10   5/10
CAPE LOOKOUT NC  1500   59     260/ 13/ 16 1017.8R
$$




USA.gov is the U.S. government's official web portal to all federal, state and local government web resources and services.